Regional Weather Roundup
Issued by NWS Newport/Morehead, NC

Current Version | Previous Version | Text Only | Print | Product List | Glossary On
Versions: 1 2 3 4 5 6 7 8 9 10 11 12 13 14 15 16 17 18 19 20 21 22 23 24 25 26 27 28 29 30 31 32 33 34 35 36 37 38 39 40 41 42 43 44 45 46 47 48 49 50
000
ASUS42 KMHX 260925
RWRMHX
WEATHER ROUNDUP FOR EASTERN NORTH CAROLINA
NATIONAL WEATHER SERVICE NEWPORT/MOREHEAD CITY NC
500 AM EDT THU MAY 26 2016

NOTE: "FAIR" INDICATES FEW OR NO CLOUDS BELOW 12,000 FEET
WITH NO SIGNIFICANT WEATHER AND/OR OBSTRUCTIONS TO VISIBILITY

NCZ015>017-031-032-045>047-102-103-261000-
NORTH COAST

CITY           SKY/WX    TMP DP  RH WIND       PRES   REMARKS
EDENTON        CLOUDY   N/A N/A N/A S6        30.18S
ELIZABETH CITY MOCLDY    67  62  84 SW9       30.17R
KITTY HAWK     PTSUNNY   68  64  85 CALM      30.17S
MANTEO         NOT AVBL

$$

NCZ045>047-081-094-103-104-261000-
CENTRAL COAST

CITY           SKY/WX    TMP DP  RH WIND       PRES   REMARKS
FRISCO         CLEAR     69  66  90 SW5       30.20R

$$

NCZ095-097-098-100-101-261000-
SOUTHERN COAST

CITY           SKY/WX    TMP DP  RH WIND       PRES   REMARKS
BEAUFORT       CLEAR     70  68  93 S6        30.19S
CEDAR ISLAND   NOT AVBL
JACKSONVILLE   CLOUDY    67  65  93 CALM      30.18S
PINEY ISLAND   NOT AVBL
WILMINGTON     MOCLDY    67  65  93 CALM      30.19R


$$

NCZ011>013-027>030-043-044-078>080-089-090>093-098-261000-
COASTAL PLAIN

CITY           SKY/WX    TMP DP  RH WIND       PRES   REMARKS
AHOSKIE        NOT AVBL
CLINTON        CLEAR     65  65 100 CALM      30.19R
ELIZABETHTOWN  NOT AVBL
GOLDSBORO      PTCLDY    68  68 100 SW5       30.16R
GREENVILLE     MOCLDY    68  63  83 S5        30.19R
HAVELOCK       PTCLDY    65  63  93 S3        30.20R
KENANSVILLE    MOCLDY    66  64  95 CALM      30.19S
KINSTON        PTCLDY    67  64  90 S5        30.19R
NEW BERN       MOCLDY    68  65  90 S5        30.20R
RICHLANDS      MOCLDY    65  64  97 S5        30.19S
ROCKY MOUNT    CLEAR     65  62  90 S5        30.16S
WASHINGTON     PTCLDY    66  64  91 SW5       30.18S
WHITEVILLE     PTCLDY    67  65  94 CALM      30.18S

$$

AMZ130-135-150-152-154-156-158-170-250-252-270-ANZ085-086-088-633-658-670-261000-
MARINE OBSERVATIONS

STATION/POSITION TIME  TEMP    WIND        PRES    WAVE   SWELL
                       AIR SEA DIR/SP/G            HT/PER HT/PER
                 (UTC) (F)     (DEG/KT/KT) (MB)    (FT/S) (FT/S)
CHESAPEAKE LIGHT 0900   68     220/ 16/ 17 1021.3
64 E VA BEACH    0850   63 57  230/ 12/ 14 1021.1    3/ 9   2/ 9
DUCK             0900   70 60  200/  9/ 12 1021.0
2 E DUCK         0811      62                N/A     2/10
OREGON INLET     0900   71 72  190/ 10/ 12 1022.0
13E OREGON INLT  0900      64                N/A     2/ 8   2/ 8
HATTERAS CG      0900   69 71  190/  3/  5 1022.0
DIAMOND BUOY     0850   72 69  220/  6/  8 1022.7    2/ 8   2/ 8
CAPE LOOKOUT     0900   71     200/  6/  6 1022.1
BEAUFORT LAB     0900   71 70  190/  5/  6 1021.5
30 SE NEW RVR IN 0825      74                N/A     2/ 9
27 SE WRIGHTSVLE 0908   75 73  220/  8/ 10 1021.6
5 SE WRIGHTSVLE  0808   74 73  210/ 10/ 12 1022.7
225 S CAPE HAT   0850   74 78   70/ 10/ 12 1022.8    2/ 9   2/ 9
41 SE CHARLESTON 0850   76 76  160/  8/  8 1021.9    2/ 8   2/ 8

$$




USA.gov is the U.S. government's official web portal to all federal, state and local government web resources and services.